Massena, NY

5:04 AM EST on December 07, 2016 (GMT -0500)
Massena International-Richards

Weather History for KMSS - April, 2013

Change the Weather History Date:

Thursday, April 11, 2013

  Actual Average Record
Temperature  
Mean Temperature 35 °F 41 °F  
Max Temperature 39 °F 52 °F 76 °F (2011)
Min Temperature 30 °F 31 °F 17 °F (1976)
Degree Days  
Heating Degree Days 30 24  
Month to date heating degree days 303 289  
Since 1 July heating degree days 6835 7420  
Cooling Degree Days 0 0  
Month to date cooling degree days 0 0  
Year to date cooling degree days 0 0  
Moisture  
Dew Point 17 °F    
Average Humidity 48    
Maximum Humidity 58    
Minimum Humidity 38    
Precipitation  
Precipitation 0.00 in 0.10 in 1.00 in (1992)
Month to date precipitation 0.46 1.01  
Year to date precipitation 3.18 7.05  
Sea Level Pressure  
Sea Level Pressure 30.17 in    
Wind  
Wind Speed 9 mph (NNE)    
Max Wind Speed 16 mph    
Max Gust Speed 21 mph    
Visibility 10 miles    
Events      
T = Trace of Precipitation, MM = Missing Value Source: NWS Daily Summary

Daily Weather History Graph

Daily Weather History Graph

Search for Another Location

Airport or City:

Trip Planner

Search our weather history database for the weather conditions in past years. The results will help you decide how hot, cold, wet, or windy it might be!

Date:

Astronomy

Apr. 11, 2013 Rise Set
Actual Time 6:21 AM EDT 7:40 PM EDT
Civil Twilight 5:51 AM EDT 8:10 PM EDT
Nautical Twilight 5:14 AM EDT 8:47 PM EDT
Astronomical Twilight 4:36 AM EDT 9:25 PM EDT
Moon 6:47 AM EDT (4/11) 9:17 PM EDT (4/11)
Length of Visible Light 14h 19m
Length of Day
13h 18m
New Moon, 2% of the Moon is Illuminated
Apr 11
New Moon
Apr 18
First Quarter
Apr 25
Full
May 2
Last Quarter
May 9
New

Hourly Weather History & Observations

Time (EDT) Temp. Windchill Dew Point Humidity Pressure Visibility Wind Dir Wind Speed Gust Speed Precip Events Conditions
12:53 AM 37.0 °F 34.5 °F 21.0 °F 52% 30.04 in 10.0 mi North 3.5 mph - N/A   Clear
1:53 AM 36.0 °F 29.6 °F 19.0 °F 50% 30.04 in 10.0 mi NNW 8.1 mph - N/A   Clear
2:53 AM 34.0 °F 27.2 °F 18.0 °F 52% 30.05 in 10.0 mi North 8.1 mph - N/A   Clear
3:53 AM 33.1 °F 26.1 °F 17.1 °F 52% 30.07 in 10.0 mi North 8.1 mph - N/A   Clear
4:53 AM 32.0 °F 25.6 °F 17.1 °F 54% 30.11 in 10.0 mi North 6.9 mph - N/A   Clear
5:53 AM 32.0 °F 25.6 °F 17.1 °F 54% 30.14 in 10.0 mi North 6.9 mph - N/A   Clear
6:53 AM 30.0 °F 24.1 °F 18.0 °F 61% 30.13 in 10.0 mi North 5.8 mph - N/A   Clear
7:53 AM 33.1 °F 26.1 °F 18.0 °F 54% 30.15 in 10.0 mi North 8.1 mph - N/A   Clear
8:53 AM 33.1 °F 24.4 °F 16.0 °F 50% 30.17 in 10.0 mi North 11.5 mph - N/A   Clear
9:53 AM 32.0 °F 23.0 °F 16.0 °F 52% 30.19 in 10.0 mi North 11.5 mph - N/A   Clear
10:53 AM 32.0 °F 24.2 °F 15.1 °F 50% 30.20 in 10.0 mi North 9.2 mph - N/A   Clear
11:53 AM 33.1 °F 24.9 °F 15.1 °F 48% 30.22 in 10.0 mi NNW 10.4 mph - N/A   Clear
12:53 PM 33.8 °F 27.7 °F 15.8 °F 48% 30.22 in 10.0 mi NNE 6.9 mph - N/A   Clear
1:53 PM 36.0 °F 32.1 °F 17.1 °F 46% 30.21 in 10.0 mi North 4.6 mph - N/A   Clear
2:53 PM 37.9 °F 31.5 °F 17.1 °F 43% 30.20 in 10.0 mi NE 9.2 mph - N/A   Clear
3:53 PM 37.0 °F 31.0 °F 18.0 °F 46% 30.21 in 10.0 mi NE 8.1 mph - N/A   Clear
4:53 PM 36.0 °F 28.5 °F 12.9 °F 39% 30.19 in 10.0 mi East 10.4 mph - N/A   Mostly Cloudy
5:53 PM 36.0 °F 28.0 °F 16.0 °F 44% 30.19 in 10.0 mi ENE 11.5 mph - N/A   Partly Cloudy
6:53 PM 36.0 °F 29.0 °F 14.0 °F 41% 30.19 in 10.0 mi ENE 9.2 mph - N/A   Mostly Cloudy
7:53 PM 36.0 °F 31.1 °F 16.0 °F 44% 30.21 in 10.0 mi ENE 5.8 mph - N/A   Overcast
8:53 PM 34.0 °F 28.8 °F 18.0 °F 52% 30.21 in 10.0 mi ENE 5.8 mph - N/A   Partly Cloudy
9:53 PM 33.1 °F 26.9 °F 18.0 °F 54% 30.21 in 10.0 mi ENE 6.9 mph - N/A   Clear
10:53 PM 34.0 °F 26.6 °F 18.0 °F 52% 30.22 in 10.0 mi ENE 9.2 mph - N/A   Clear
11:53 PM 34.0 °F 26.0 °F 17.1 °F 50% 30.22 in 10.0 mi ENE 10.4 mph - N/A   Overcast